ECHOSTAR 5

导读

ECHOSTAR 5是美国EchoStar公司运营的地球静止轨道通信卫星,于1999年9月23日发射升空,目前仍保持在轨运行。作为EchoStar卫星星座的核心成员,它主要承担卫星电视广播传输任务,依托高功率转发器技术为北美地区提供稳定的电视信号传输,支撑DirecTV等主流卫星电视平台的日常运营,推动了卫星通信产业早期的商业化发展。

Basic Information
目录编号:
25913
目录名称:
ECHOSTAR 5
国际标识:
1999-050A
轨道中心:
EARTH
卫星名称:
ECHOSTAR 5
卫星全名:
--
卫星状态:
在轨 (已飞行9854 天)
发射日期:
1999-09-23 UTC
国别 :
美国 (US)
星等 :
--
This satellite is enrolled in the Space Conjunction Data Service (SCDS) and the current flight risk assessment level is: No High Risk
Orbit Information
数据来源 国际轨道数据 AOE轨道数据
星历时间 2026-09-15T18:41:23+0800
11小时前
查看轨道信息
2026-09-14T03:00:00+0800
2天前
查看轨道信息
半长轴 42598.481km 42598.568km
偏心率 0.0001812 0.0001633
轨道倾角 12.122° 12.119°
近地点辐角 175.049° 162.052°
升交点赤经 35.351° 35.365°
平近点角 20.158° 165.264°
近地点 36212.625km 36213.474km
远地点 36228.063km 36227.388km
周期 1458.314分钟 1458.318分钟
每日圈数 0.987442 0.987439
Detailed Information
使用方式:
暂无
2D Orbit Map
3D Orbit Map
Orbit Altitude Analysis Chart
Orbit Inclination Analysis Chart
Orbit Comprehensive Analysis Chart
View Comprehensive Chart
Miss Distance Evolution Trend with All Objects Subscribe to Flight Safety Assessment
Collision Probability Evolution Trend with All Objects Subscribe to Flight Safety Assessment